ZHONGXING-10

Last updated on Thu Nov 21 2024 00:02:41 GMT+0000 (Coordinated Universal Time)

1 37677U 11026A 24325.55958377 -.00000351 00000+0 00000+0 0 9993 2 37677 0.0473 269.0361 0004434 300.4271 162.5790 1.00272651 49248
UTC large
Height (km)
Speed (km/s)
/
Latitude / Longitude
Inclination (degrees)
Orbital Period (minutes)
Azimuth
Elevation
Range (km)
Doppler Factor

Next 0 passes for location: London (51.5072 / 0.1276)

Sorry there are no passes over London.